Location: ??????
(41.3747°N, 22.5491°E)
Time: 15:02:18
(UTC+00:00)

CZ-2D R/B - Pass Details

Date: 01 December 2020
Orbit: 520 x 538 km, 97.4° (Epoch: 21 January)

Event Time Altitude Azimuth Distance (km) Brightness Sun altitude
Rises 16:14:01 0° 145° (SE) 2,646 6.6 -13.4°
Reaches altitude 10° 16:16:15 10° 136° (SE) 1,765 5.6 -13.8°
Maximum altitude 16:19:40 33° 72° (ENE) 910 3.9 -14.4°
Drops below altitude 10° 16:23:09 10° 7° (N) 1,788 5.7 -15.0°
Sets 16:25:24 0° 358° (N) 2,686 6.7 -15.4°
